Home   Weather   Oldenburg   Past weeks

Flag for Germany Past Weather in Oldenburg, Lower Saxony, Germany — Yesterday and Last 2 Weeks

Now
59 °F

Passing clouds.


Feels Like: 58 °F
Forecast: 58 / 68 °F
Wind: 8 mph from Southwest

Location: Bremen Airport

Current Time: Sep 28, 2016 at 3:51:13 AM

Latest Report: Sep 28, 2016 at 3:20 AM


Visibility: N/A

Pressure: 30.18 "Hg

Humidity: 72%

Dew Point: 50 °F

Location of OldenburgLocation

Past Weather in Oldenburg — Graph

°F

Oldenburg Temperature Yesterday

Maximum temperature yesterday: 72 °F (at 3:20 PM)
Minimum temperature yesterday: 46 °F (at 5:20 AM)
Average temperature yesterday: 58 °F

High & Low Weather Summary for the Past Weeks

 TemperatureHumidityPressure
High90 °F (Sep 13, 2:20 PM)100% (Sep 17, 12:50 AM)30.30 "Hg (Sep 17, 12:50 AM)
Low45 °F (Sep 21, 6:50 AM)32% (Sep 15, 4:50 PM)29.86 "Hg (Sep 16, 2:20 AM)
Average63 °F72%30.09 "Hg
* Reported Sep 13 2:20 AM — Sep 28 2:20 AM, Oldenburg, Weather by CustomWeather, © 2016

Note: Actual official high and low records may vary slightly from our data, if they occured in-between our weather recording intervals... More about our weather records

Advertising

Oldenburg Weather History for the Previous 24 Hours

Scroll right to see more
 ConditionsComfort  
Time TempWeatherWind HumidityBarometerVisibility
2:20 AM
Wed, Sep 28
55 °FClear.8 mph82%30.18 "Hg10 mi
1:50 AM55 °FClear.7 mph77%30.21 "Hg10 mi
1:20 AM57 °FClear.6 mph77%30.21 "Hg10 mi
12:50 AM54 °FClear.5 mph82%30.21 "Hg10 mi
12:20 AM55 °FClear.6 mph77%30.21 "Hg10 mi
11:50 PM
Tue, Sep 27
55 °FClear.6 mph77%30.24 "Hg10 mi
11:20 PM55 °FClear.5 mph77%30.24 "Hg10 mi
10:50 PM57 °FClear.6 mph72%30.24 "Hg10 mi
10:20 PM57 °FClear.5 mph72%30.24 "Hg10 mi
9:50 PM57 °FClear.6 mph72%30.24 "Hg10 mi
9:20 PM57 °FClear.5 mph72%30.27 "Hg10 mi
8:50 PM59 °FClear.6 mph68%30.24 "Hg10 mi
8:20 PM61 °FClear.6 mph63%30.24 "Hg10 mi
7:50 PM61 °FClear.5 mph63%30.27 "Hg10 mi
7:20 PM64 °FClear.6 mph56%30.27 "Hg10 mi
6:50 PM66 °FPassing clouds.6 mph56%30.27 "HgN/A
6:20 PM68 °FSunny.7 mph49%30.27 "Hg10 mi
5:50 PM70 °FSunny.7 mph46%30.24 "Hg10 mi
5:20 PM70 °FPartly sunny.10 mph46%30.24 "HgN/A
4:50 PM70 °FPartly sunny.9 mph50%30.27 "HgN/A
4:20 PM70 °FPartly sunny.10 mph50%30.27 "HgN/A
3:50 PM70 °FPartly sunny.8 mph46%30.27 "HgN/A
3:20 PM72 °FPassing clouds.9 mph44%30.27 "HgN/A
2:50 PM70 °FPassing clouds.9 mph50%30.27 "HgN/A
2:20 PM70 °FPassing clouds.8 mph50%30.30 "HgN/A
1:50 PM70 °FPassing clouds.6 mph50%30.30 "HgN/A
1:20 PM70 °FPassing clouds.6 mph50%30.30 "HgN/A
12:50 PM68 °FPassing clouds.5 mph56%30.30 "HgN/A
12:20 PM68 °FPassing clouds.5 mph60%30.30 "HgN/A
11:50 AM66 °FPassing clouds.6 mph60%30.30 "HgN/A
11:20 AM64 °FPassing clouds.6 mph68%30.30 "HgN/A
10:50 AM64 °FSunny.6 mph73%30.30 "Hg10 mi
10:20 AM61 °FPassing clouds.5 mph83%30.30 "HgN/A
9:50 AM59 °FSunny.1 mph88%30.30 "Hg10 mi
9:20 AM54 °FPassing clouds.3 mph94%30.30 "HgN/A
8:50 AM52 °FSunny.No wind100%30.30 "Hg10 mi
8:20 AM46 °FFog.No wind100%30.27 "Hg3 mi
7:50 AM46 °FFog.No wind100%30.27 "Hg1 mi
7:20 AM46 °FFog.No wind100%30.27 "Hg1 mi
6:50 AM46 °FCool.No wind100%30.27 "Hg1 mi
6:20 AM46 °FCool.No wind100%30.27 "HgN/A
5:50 AM46 °FCool.No wind100%30.27 "HgN/A
5:20 AM46 °FRain. Overcast.2 mph100%30.27 "HgN/A
4:50 AM48 °FCool.1 mph100%30.27 "Hg5 mi
4:20 AM48 °FFog.No wind100%30.27 "HgN/A
3:50 AM48 °FFog.3 mph100%30.24 "HgN/A
3:20 AM50 °FClear.1 mph100%30.24 "Hg10 mi
Weather by CustomWeather, © 2016

See weather overviewHow to use our weather pages